Regional Weather Roundup
Issued by NWS

Home | Current Version | Previous Version | Text Only | Print | Product List | Glossary Off
Versions: 1 2 3 4 5 6 7 8 9 10 11 12 13 14 15 16 17 18 19 20 21 22 23 24 25 26 27 28 29 30 31 32 33 34 35 36 37 38 39 40 41 42 43 44 45 46 47 48 49 50

261
ASUS44 KMEG 251900
RWRTN
TENNESSEE HOURLY STATE WEATHER ROUNDUP
NATIONAL WEATHER SERVICE MEMPHIS TN
200 PM CDT SAT MAR 25 2017

TNZ002-004-019-021-049-052-054-088>092-252000-
WEST TENNESSEE

CITY           SKY/WX    TMP DP  RH WIND       PRES   REMARKS
MEMPHIS INTL   CLOUDY    66  60  81 S15G23    29.92F
NWS MEMPHIS      N/A     64 N/A N/A MISG        N/A
JACKSON        CLOUDY    65  58  78 S12G30    29.96F
DYERSBURG      LGT RAIN  62  59  90 S9G18     29.94F
PARIS          CLOUDY    61  54  77 S18       29.98S
$$

TNZ008-025-027-028-033-062-065-066-252000-
NORTH MIDDLE TENNESSEE

CITY           SKY/WX    TMP DP  RH WIND       PRES   REMARKS
NASHVILLE      CLOUDY    75  53  46 S22       30.04F
CLARKSVILLE    CLOUDY    71  51  49 S23G29    29.98F
SMYRNA         CLOUDY    73  55  53 S15G21    30.04F
CROSSVILLE     PTSUNNY   69  49  48 S13G25    30.13F
$$

TNZ061-075-076-078-094-096-097-252000-
SOUTH MIDDLE TENNESSEE

CITY           SKY/WX    TMP DP  RH WIND       PRES   REMARKS
TULLAHOMA      CLOUDY    70  48  46 S15       30.08F
WINCHESTER     CLOUDY    72  54  53 S20       30.08F
MCMINNVILLE    SUNNY     73  52  46 S12       30.08F
COLUMBIA       PTSUNNY   72  57  60 S13       30.02F
SHELBYVILLE    CLOUDY    73  55  53 S14       30.07F
$$

TNZ017-018-042-046-047-252000-
NORTHEAST TENNESSEE

CITY           SKY/WX    TMP DP  RH WIND       PRES   REMARKS
TRI CITIES     PTSUNNY   73  48  41 VRB6      30.16F
$$

TNZ012-013-036-069-073-074-252000-
CENTRAL EAST TENNESSEE

CITY           SKY/WX    TMP DP  RH WIND       PRES   REMARKS
KNOXVILLE      CLOUDY    72  47  40 VRB7      30.13F
OAK RIDGE      MOSUNNY   74  47  38 S10G23    30.15F
GATLINBURG     SUNNY     73  46  38 S7        30.13F
$$

TNZ083-085-099-252000-
SOUTHEAST TENNESSEE

CITY           SKY/WX    TMP DP  RH WIND       PRES   REMARKS
CHATTANOOGA    PTSUNNY   75  50  41 SE14G24   30.12F
$$

SKY/WX REPORTED AS FAIR MEANS FEW OR NO CLOUDS BELOW
12 THOUSAND FEET.





USA.gov is the U.S. government's official web portal to all federal, state and local government web resources and services.